"Sample Date","Sample Time","Sensor Name","Sample Value","Units","Flow Rate","Sample Interval","Sample Volume","Laser Status","Number Channels","Micron Size 0","Counts/Channel 0","Micron Size 1","Counts/Channel 1","Micron Size 2","Counts/Channel 2","Micron Size 3","Counts/Channel 3","Micron Size 4","Counts/Channel 4","Micron Size 5","Counts/Channel 5","Micron Size 6","Counts/Channel 6","Micron Size 7","Counts/Channel 7","Micron Size 8","Counts/Channel 8","Micron Size 9","Counts/Channel 9","Micron Size 10","Counts/Channel 10","Micron Size 11","Counts/Channel 11","Micron Size 12","Counts/Channel 12","Micron Size 13","Counts/Channel 13","Micron Size 14","Counts/Channel 14","Micron Size 15","Counts/Channel 15","Micron Size 16","Counts/Channel 16","Micron Size 17","Counts/Channel 17","Micron Size 18","Counts/Channel 18","Micron Size 19","Counts/Channel 19","Micron Size 20","Counts/Channel 20","Micron Size 21","Counts/Channel 21","Micron Size 22","Counts/Channel 22","Micron Size 23","Counts/Channel 23","Micron Size 24","Counts/Channel 24","Micron Size 25","Counts/Channel 25","Micron Size 26","Counts/Channel 26","Micron Size 27","Counts/Channel 27","Micron Size 28","Counts/Channel 28","Micron Size 29","Counts/Channel 29","Micron Size 30","Counts/Channel 30","Micron Size 31","Counts/Channel 31"
"07/01/06","20:00:02","AMMA06",59895.000,"cc",28325.057,6.00,2832.506,1,6,0.100,30329.000,0.200,23914.000,0.300,3805.000,0.500,1128.000,1.000,719.000,5.000,0
"07/01/06","20:00:08","AMMA06",59903.000,"cc",28293.260,6.00,2829.326,1,6,0.100,30398.000,0.200,23761.000,0.300,3917.000,0.500,1102.000,1.000,725.000,5.000,0
"07/01/06","20:00:14","AMMA06",59983.000,"cc",28380.625,6.00,2838.063,1,6,0.100,30604.000,0.200,23667.000,0.300,3874.000,0.500,1122.000,1.000,716.000,5.000,0
"07/01/06","20:00:20","AMMA06",60031.000,"cc",28257.090,6.00,2825.709,1,6,0.100,30481.000,0.200,23923.000,0.300,3818.000,0.500,1092.000,1.000,717.000,5.000,0
"07/01/06","20:00:26","AMMA06",59927.000,"cc",28269.686,6.00,2826.969,1,6,0.100,30436.000,0.200,23963.000,0.300,3784.000,0.500,1070.000,1.000,674.000,5.000,0
"07/01/06","20:00:32","AMMA06",60393.000,"cc",28313.090,6.00,2831.309,1,6,0.100,30818.000,0.200,23905.000,0.300,3825.000,0.500,1119.000,1.000,726.000,5.000,0
"07/01/06","20:00:38","AMMA06",60260.000,"cc",28370.391,6.00,2837.039,1,6,0.100,30485.000,0.200,24114.000,0.300,3863.000,0.500,1067.000,1.000,731.000,5.000,0
"07/01/06","20:00:44","AMMA06",60108.000,"cc",28293.961,6.00,2829.396,1,6,0.100,30339.000,0.200,24004.000,0.300,3912.000,0.500,1118.000,1.000,735.000,5.000,0
"07/01/06","20:00:50","AMMA06",59812.000,"cc",28329.500,6.00,2832.950,1,6,0.100,30164.000,0.200,23826.000,0.300,4020.000,0.500,1066.000,1.000,736.000,5.000,0
"07/01/06","20:00:56","AMMA06",59625.000,"cc",28331.346,6.00,2833.135,1,6,0.100,29989.000,0.200,23910.000,0.300,3887.000,0.500,1111.000,1.000,728.000,5.000,0
"07/01/06","20:01:02","AMMA06",59688.000,"cc",28320.613,6.00,2832.062,1,6,0.100,29960.000,0.200,24100.000,0.300,3823.000,0.500,1063.000,1.000,742.000,5.000,0
"07/01/06","20:01:08","AMMA06",60299.000,"cc",28328.975,6.00,2832.898,1,6,0.100,30624.000,0.200,23941.000,0.300,3894.000,0.500,1099.000,1.000,741.000,5.000,0
"07/01/06","20:01:14","AMMA06",59958.000,"cc",28304.955,6.00,2830.496,1,6,0.100,30402.000,0.200,23969.000,0.300,3787.000,0.500,1071.000,1.000,729.000,5.000,0
"07/01/06","20:01:20","AMMA06",60136.000,"cc",28310.076,6.00,2831.008,1,6,0.100,30418.000,0.200,24096.000,0.300,3867.000,0.500,1075.000,1.000,678.000,5.000,2.000
"07/01/06","20:01:26","AMMA06",59971.000,"cc",28348.111,6.00,2834.811,1,6,0.100,30408.000,0.200,23731.000,0.300,4054.000,0.500,1061.000,1.000,717.000,5.000,0
"07/01/06","20:01:32","AMMA06",59933.000,"cc",28299.322,6.00,2829.932,1,6,0.100,30114.000,0.200,24121.000,0.300,3929.000,0.500,1053.000,1.000,716.000,5.000,0
"07/01/06","20:01:38","AMMA06",60207.000,"cc",28294.090,6.00,2829.409,1,6,0.100,30246.000,0.200,24116.000,0.300,3981.000,0.500,1133.000,1.000,731.000,5.000,0
"07/01/06","20:01:44","AMMA06",60328.000,"cc",28326.102,6.00,2832.610,1,6,0.100,30259.000,0.200,24269.000,0.300,3952.000,0.500,1120.000,1.000,728.000,5.000,0
"07/01/06","20:01:50","AMMA06",60385.000,"cc",28366.104,6.00,2836.611,1,6,0.100,30383.000,0.200,24286.000,0.300,3891.000,0.500,1106.000,1.000,719.000,5.000,0
"07/01/06","20:01:56","AMMA06",59336.000,"cc",28340.492,6.00,2834.049,1,6,0.100,29834.000,0.200,23906.000,0.300,3797.000,0.500,1112.000,1.000,687.000,5.000,0
"07/01/06","20:02:02","AMMA06",59649.000,"cc",28315.516,6.00,2831.552,1,6,0.100,30008.000,0.200,23929.000,0.300,3920.000,0.500,1068.000,1.000,724.000,5.000,0
"07/01/06","20:02:08","AMMA06",60278.000,"cc",28290.361,6.00,2829.036,1,6,0.100,30386.000,0.200,24277.000,0.300,3901.000,0.500,997.000,1.000,717.000,5.000,0
"07/01/06","20:02:14","AMMA06",60292.000,"cc",28277.553,6.00,2827.755,1,6,0.100,30413.000,0.200,24116.000,0.300,3952.000,0.500,1085.000,1.000,725.000,5.000,1.000
"07/01/06","20:02:20","AMMA06",59961.000,"cc",28341.617,6.00,2834.162,1,6,0.100,30218.000,0.200,24145.000,0.300,3914.000,0.500,995.000,1.000,689.000,5.000,0
"07/01/06","20:02:26","AMMA06",59861.000,"cc",28319.830,6.00,2831.983,1,6,0.100,29881.000,0.200,24222.000,0.300,3954.000,0.500,1079.000,1.000,725.000,5.000,0
"07/01/06","20:02:32","AMMA06",60157.000,"cc",28302.037,6.00,2830.204,1,6,0.100,30271.000,0.200,24116.000,0.300,3981.000,0.500,1036.000,1.000,753.000,5.000,0
"07/01/06","20:02:38","AMMA06",60170.000,"cc",28313.871,6.00,2831.387,1,6,0.100,30297.000,0.200,24047.000,0.300,4088.000,0.500,1026.000,1.000,711.000,5.000,1.000
"07/01/06","20:02:44","AMMA06",60487.000,"cc",28335.027,6.00,2833.503,1,6,0.100,30530.000,0.200,24243.000,0.300,3937.000,0.500,1050.000,1.000,727.000,5.000,0
"07/01/06","20:02:50","AMMA06",60173.000,"cc",28276.598,6.00,2827.660,1,6,0.100,30181.000,0.200,24319.000,0.300,3880.000,0.500,1107.000,1.000,686.000,5.000,0
"07/01/06","20:02:56","AMMA06",59988.000,"cc",28336.279,6.00,2833.628,1,6,0.100,30299.000,0.200,23862.000,0.300,3977.000,0.500,1039.000,1.000,811.000,5.000,0
"07/01/06","20:03:02","AMMA06",59953.000,"cc",28340.193,6.00,2834.020,1,6,0.100,30115.000,0.200,24051.000,0.300,3974.000,0.500,1060.000,1.000,752.000,5.000,1.000
"07/01/06","20:03:08","AMMA06",60255.000,"cc",28323.881,6.00,2832.388,1,6,0.100,30553.000,0.200,24008.000,0.300,3886.000,0.500,1087.000,1.000,721.000,5.000,0
"07/01/06","20:03:14","AMMA06",59784.000,"cc",28253.418,6.00,2825.342,1,6,0.100,30518.000,0.200,23629.000,0.300,3877.000,0.500,1057.000,1.000,703.000,5.000,0
"07/01/06","20:03:20","AMMA06",60162.000,"cc",28351.416,6.00,2835.142,1,6,0.100,30468.000,0.200,24092.000,0.300,3872.000,0.500,1041.000,1.000,688.000,5.000,1.000
"07/01/06","20:03:26","AMMA06",60171.000,"cc",28334.549,6.00,2833.455,1,6,0.100,30650.000,0.200,23937.000,0.300,3815.000,0.500,1074.000,1.000,693.000,5.000,2.000
"07/01/06","20:03:32","AMMA06",60135.000,"cc",28355.748,6.00,2835.575,1,6,0.100,30689.000,0.200,23859.000,0.300,3778.000,0.500,1106.000,1.000,703.000,5.000,0
"07/01/06","20:03:38","AMMA06",59870.000,"cc",28324.811,6.00,2832.481,1,6,0.100,30485.000,0.200,23761.000,0.300,3792.000,0.500,1092.000,1.000,740.000,5.000,0
"07/01/06","20:03:44","AMMA06",60243.000,"cc",28282.731,6.00,2828.273,1,6,0.100,31053.000,0.200,23587.000,0.300,3762.000,0.500,1128.000,1.000,713.000,5.000,0
"07/01/06","20:03:50","AMMA06",60088.000,"cc",28319.652,6.00,2831.965,1,6,0.100,30789.000,0.200,23768.000,0.300,3777.000,0.500,1078.000,1.000,676.000,5.000,0
"07/01/06","20:03:56","AMMA06",60234.000,"cc",28350.811,6.00,2835.081,1,6,0.100,30862.000,0.200,23731.000,0.300,3787.000,0.500,1109.000,1.000,745.000,5.000,0
"07/01/06","20:04:02","AMMA06",60105.000,"cc",28324.000,6.00,2832.400,1,6,0.100,30822.000,0.200,23736.000,0.300,3685.000,0.500,1119.000,1.000,743.000,5.000,0
"07/01/06","20:04:08","AMMA06",59760.000,"cc",28262.596,6.00,2826.260,1,6,0.100,30856.000,0.200,23364.000,0.300,3718.000,0.500,1135.000,1.000,686.000,5.000,1.000
"07/01/06","20:04:14","AMMA06",60008.000,"cc",28345.857,6.00,2834.586,1,6,0.100,31005.000,0.200,23497.000,0.300,3694.000,0.500,1097.000,1.000,715.000,5.000,0
"07/01/06","20:04:20","AMMA06",59989.000,"cc",28338.520,6.00,2833.852,1,6,0.100,30954.000,0.200,23600.000,0.300,3671.000,0.500,1080.000,1.000,683.000,5.000,1.000
"07/01/06","20:04:26","AMMA06",60163.000,"cc",28281.451,6.00,2828.145,1,6,0.100,30945.000,0.200,23592.000,0.300,3759.000,0.500,1143.000,1.000,723.000,5.000,1.000
"07/01/06","20:04:32","AMMA06",60053.000,"cc",28351.656,6.00,2835.166,1,6,0.100,30738.000,0.200,23835.000,0.300,3705.000,0.500,1069.000,1.000,705.000,5.000,1.000
"07/01/06","20:04:38","AMMA06",59787.000,"cc",28315.623,6.00,2831.563,1,6,0.100,30699.000,0.200,23618.000,0.300,3705.000,0.500,1069.000,1.000,696.000,5.000,0
"07/01/06","20:04:44","AMMA06",59874.000,"cc",28277.406,6.00,2827.741,1,6,0.100,30738.000,0.200,23635.000,0.300,3706.000,0.500,1053.000,1.000,741.000,5.000,1.000
"07/01/06","20:04:50","AMMA06",59721.000,"cc",28297.203,6.00,2829.721,1,6,0.100,30662.000,0.200,23694.000,0.300,3720.000,0.500,1011.000,1.000,633.000,5.000,1.000
"07/01/06","20:04:56","AMMA06",59762.000,"cc",28294.617,6.00,2829.462,1,6,0.100,30772.000,0.200,23624.000,0.300,3606.000,0.500,1072.000,1.000,687.000,5.000,1.000
"07/01/06","20:05:02","AMMA06",59803.000,"cc",28348.555,6.00,2834.856,1,6,0.100,30945.000,0.200,23355.000,0.300,3771.000,0.500,1019.000,1.000,712.000,5.000,1.000
"07/01/06","20:05:08","AMMA06",59970.000,"cc",28304.908,6.00,2830.491,1,6,0.100,30800.000,0.200,23620.000,0.300,3733.000,0.500,1102.000,1.000,714.000,5.000,1.000
"07/01/06","20:05:14","AMMA06",60132.000,"cc",28302.264,6.00,2830.227,1,6,0.100,30705.000,0.200,23902.000,0.300,3776.000,0.500,1069.000,1.000,677.000,5.000,3.000
"07/01/06","20:05:20","AMMA06",59895.000,"cc",28346.619,6.00,2834.662,1,6,0.100,30783.000,0.200,23733.000,0.300,3690.000,0.500,1037.000,1.000,652.000,5.000,0
"07/01/06","20:05:26","AMMA06",59796.000,"cc",28346.775,6.00,2834.678,1,6,0.100,30765.000,0.200,23535.000,0.300,3805.000,0.500,1014.000,1.000,677.000,5.000,0
"07/01/06","20:05:32","AMMA06",59759.000,"cc",28285.059,6.00,2828.506,1,6,0.100,30674.000,0.200,23675.000,0.300,3660.000,0.500,1053.000,1.000,697.000,5.000,0
"07/01/06","20:05:38","AMMA06",59839.000,"cc",28377.223,6.00,2837.722,1,6,0.100,30909.000,0.200,23470.000,0.300,3670.000,0.500,1088.000,1.000,702.000,5.000,0
"07/01/06","20:05:44","AMMA06",60149.000,"cc",28295.785,6.00,2829.579,1,6,0.100,30832.000,0.200,23729.000,0.300,3808.000,0.500,1049.000,1.000,731.000,5.000,0
"07/01/06","20:05:50","AMMA06",59928.000,"cc",28237.096,6.00,2823.710,1,6,0.100,30998.000,0.200,23483.000,0.300,3622.000,0.500,1102.000,1.000,722.000,5.000,1.000
"07/01/06","20:05:56","AMMA06",60706.000,"cc",28301.840,6.00,2830.184,1,6,0.100,31135.000,0.200,23947.000,0.300,3877.000,0.500,1027.000,1.000,720.000,5.000,0
"07/01/06","20:06:02","AMMA06",60171.000,"cc",28306.190,6.00,2830.619,1,6,0.100,30852.000,0.200,23717.000,0.300,3786.000,0.500,1107.000,1.000,709.000,5.000,0
"07/01/06","20:06:08","AMMA06",60303.000,"cc",28307.500,6.00,2830.750,1,6,0.100,30910.000,0.200,23862.000,0.300,3774.000,0.500,1065.000,1.000,691.000,5.000,1.000
"07/01/06","20:06:14","AMMA06",60083.000,"cc",28340.059,6.00,2834.006,1,6,0.100,30812.000,0.200,23828.000,0.300,3682.000,0.500,1048.000,1.000,712.000,5.000,1.000
"07/01/06","20:06:20","AMMA06",60200.000,"cc",28331.383,6.00,2833.138,1,6,0.100,30902.000,0.200,23739.000,0.300,3743.000,0.500,1074.000,1.000,742.000,5.000,0
"07/01/06","20:06:26","AMMA06",59902.000,"cc",28306.190,6.00,2830.619,1,6,0.100,30876.000,0.200,23453.000,0.300,3773.000,0.500,1119.000,1.000,680.000,5.000,1.000
"07/01/06","20:06:32","AMMA06",60019.000,"cc",28320.709,6.00,2832.071,1,6,0.100,30851.000,0.200,23640.000,0.300,3732.000,0.500,1072.000,1.000,724.000,5.000,0
"07/01/06","20:06:38","AMMA06",59707.000,"cc",28316.170,6.00,2831.617,1,6,0.100,30560.000,0.200,23563.000,0.300,3863.000,0.500,1080.000,1.000,641.000,5.000,0
"07/01/06","20:06:44","AMMA06",60057.000,"cc",28282.447,6.00,2828.245,1,6,0.100,31109.000,0.200,23625.000,0.300,3577.000,0.500,1024.000,1.000,722.000,5.000,0
"07/01/06","20:06:50","AMMA06",60563.000,"cc",28385.307,6.00,2838.531,1,6,0.100,31426.000,0.200,23593.000,0.300,3754.000,0.500,1089.000,1.000,700.000,5.000,1.000
"07/01/06","20:06:56","AMMA06",59815.000,"cc",28333.475,6.00,2833.348,1,6,0.100,30836.000,0.200,23584.000,0.300,3694.000,0.500,1058.000,1.000,643.000,5.000,0
"07/01/06","20:07:02","AMMA06",59902.000,"cc",28280.602,6.00,2828.060,1,6,0.100,30677.000,0.200,23802.000,0.300,3705.000,0.500,1061.000,1.000,656.000,5.000,1.000
"07/01/06","20:07:08","AMMA06",60353.000,"cc",28289.215,6.00,2828.922,1,6,0.100,31221.000,0.200,23596.000,0.300,3698.000,0.500,1099.000,1.000,737.000,5.000,2.000
"07/01/06","20:07:14","AMMA06",60308.000,"cc",28333.600,6.00,2833.360,1,6,0.100,31156.000,0.200,23603.000,0.300,3781.000,0.500,1101.000,1.000,666.000,5.000,1.000
"07/01/06","20:07:20","AMMA06",60149.000,"cc",28300.152,6.00,2830.015,1,6,0.100,31218.000,0.200,23508.000,0.300,3601.000,0.500,1093.000,1.000,728.000,5.000,1.000
"07/01/06","20:07:26","AMMA06",60110.000,"cc",28344.994,6.00,2834.500,1,6,0.100,31205.000,0.200,23398.000,0.300,3771.000,0.500,1062.000,1.000,674.000,5.000,0
"07/01/06","20:07:32","AMMA06",60209.000,"cc",28302.240,6.00,2830.224,1,6,0.100,31028.000,0.200,23772.000,0.300,3596.000,0.500,1070.000,1.000,743.000,5.000,0
"07/01/06","20:07:38","AMMA06",60233.000,"cc",28278.158,6.00,2827.816,1,6,0.100,31370.000,0.200,23516.000,0.300,3545.000,0.500,1063.000,1.000,738.000,5.000,1.000
"07/01/06","20:07:44","AMMA06",60589.000,"cc",28326.520,6.00,2832.652,1,6,0.100,31289.000,0.200,23789.000,0.300,3678.000,0.500,1112.000,1.000,721.000,5.000,0
"07/01/06","20:07:50","AMMA06",59966.000,"cc",28328.688,6.00,2832.869,1,6,0.100,31144.000,0.200,23479.000,0.300,3537.000,0.500,1099.000,1.000,707.000,5.000,0
"07/01/06","20:07:56","AMMA06",60304.000,"cc",28321.670,6.00,2832.167,1,6,0.100,31372.000,0.200,23532.000,0.300,3594.000,0.500,1103.000,1.000,702.000,5.000,1.000
"07/01/06","20:08:02","AMMA06",59713.000,"cc",28344.320,6.00,2834.432,1,6,0.100,30913.000,0.200,23392.000,0.300,3587.000,0.500,1092.000,1.000,729.000,5.000,0
"07/01/06","20:08:08","AMMA06",60008.000,"cc",28346.756,6.00,2834.676,1,6,0.100,31071.000,0.200,23563.000,0.300,3653.000,0.500,1040.000,1.000,680.000,5.000,1.000
"07/01/06","20:08:14","AMMA06",60527.000,"cc",28300.029,6.00,2830.003,1,6,0.100,31256.000,0.200,23717.000,0.300,3753.000,0.500,1123.000,1.000,678.000,5.000,0
"07/01/06","20:08:20","AMMA06",60380.000,"cc",28292.832,6.00,2829.283,1,6,0.100,31027.000,0.200,23947.000,0.300,3625.000,0.500,1065.000,1.000,716.000,5.000,0
"07/01/06","20:08:26","AMMA06",60027.000,"cc",28325.326,6.00,2832.533,1,6,0.100,30969.000,0.200,23607.000,0.300,3712.000,0.500,1085.000,1.000,652.000,5.000,2.000
"07/01/06","20:08:32","AMMA06",59860.000,"cc",28312.303,6.00,2831.231,1,6,0.100,30987.000,0.200,23432.000,0.300,3704.000,0.500,1052.000,1.000,685.000,5.000,0
"07/01/06","20:08:38","AMMA06",60609.000,"cc",28322.184,6.00,2832.219,1,6,0.100,31215.000,0.200,23856.000,0.300,3799.000,0.500,1059.000,1.000,679.000,5.000,1.000
"07/01/06","20:08:44","AMMA06",60629.000,"cc",28324.164,6.00,2832.417,1,6,0.100,31261.000,0.200,23787.000,0.300,3739.000,0.500,1125.000,1.000,717.000,5.000,0
"07/01/06","20:08:50","AMMA06",60093.000,"cc",28343.023,6.00,2834.303,1,6,0.100,30891.000,0.200,23718.000,0.300,3742.000,0.500,1046.000,1.000,695.000,5.000,1.000
"07/01/06","20:08:56","AMMA06",59987.000,"cc",28286.344,6.00,2828.635,1,6,0.100,30390.000,0.200,24011.000,0.300,3889.000,0.500,1024.000,1.000,673.000,5.000,0
"07/01/06","20:09:02","AMMA06",60287.000,"cc",28315.135,6.00,2831.514,1,6,0.100,30764.000,0.200,23921.000,0.300,3814.000,0.500,1087.000,1.000,701.000,5.000,0
"07/01/06","20:09:08","AMMA06",60580.000,"cc",28360.936,6.00,2836.094,1,6,0.100,30948.000,0.200,23930.000,0.300,3823.000,0.500,1152.000,1.000,727.000,5.000,0
"07/01/06","20:09:14","AMMA06",60210.000,"cc",28357.850,6.00,2835.785,1,6,0.100,30615.000,0.200,23926.000,0.300,3908.000,0.500,1051.000,1.000,710.000,5.000,0
"07/01/06","20:09:20","AMMA06",60571.000,"cc",28264.301,6.00,2826.430,1,6,0.100,30817.000,0.200,24146.000,0.300,3883.000,0.500,1027.000,1.000,698.000,5.000,0
"07/01/06","20:09:26","AMMA06",60722.000,"cc",28285.234,6.00,2828.524,1,6,0.100,30931.000,0.200,24113.000,0.300,3827.000,0.500,1123.000,1.000,728.000,5.000,0
"07/01/06","20:09:32","AMMA06",60540.000,"cc",28318.914,6.00,2831.892,1,6,0.100,30583.000,0.200,24283.000,0.300,3899.000,0.500,1067.000,1.000,708.000,5.000,0
"07/01/06","20:09:38","AMMA06",60302.000,"cc",28314.840,6.00,2831.484,1,6,0.100,30603.000,0.200,24056.000,0.300,3811.000,0.500,1102.000,1.000,729.000,5.000,1.000
"07/01/06","20:09:44","AMMA06",60473.000,"cc",28342.779,6.00,2834.278,1,6,0.100,30373.000,0.200,24327.000,0.300,4027.000,0.500,1067.000,1.000,678.000,5.000,1.000
"07/01/06","20:09:50","AMMA06",60196.000,"cc",28293.016,6.00,2829.302,1,6,0.100,30300.000,0.200,24143.000,0.300,3979.000,0.500,1036.000,1.000,738.000,5.000,0
"07/01/06","20:09:56","AMMA06",60712.000,"cc",28245.746,6.00,2824.575,1,6,0.100,30669.000,0.200,24304.000,0.300,3915.000,0.500,1071.000,1.000,753.000,5.000,0
"07/01/06","20:10:02","AMMA06",60489.000,"cc",28334.828,6.00,2833.483,1,6,0.100,30467.000,0.200,24252.000,0.300,4103.000,0.500,956.000,1.000,710.000,5.000,1.000
"07/01/06","20:10:08","AMMA06",60529.000,"cc",28313.275,6.00,2831.328,1,6,0.100,30468.000,0.200,24344.000,0.300,3947.000,0.500,1036.000,1.000,734.000,5.000,0
"07/01/06","20:10:14","AMMA06",60608.000,"cc",28339.910,6.00,2833.991,1,6,0.100,30291.000,0.200,24495.000,0.300,3999.000,0.500,1049.000,1.000,774.000,5.000,0
"07/01/06","20:10:20","AMMA06",60529.000,"cc",28356.775,6.00,2835.678,1,6,0.100,30265.000,0.200,24518.000,0.300,4001.000,0.500,1055.000,1.000,689.000,5.000,1.000
"07/01/06","20:10:26","AMMA06",60254.000,"cc",28343.441,6.00,2834.344,1,6,0.100,30244.000,0.200,24332.000,0.300,3946.000,0.500,1028.000,1.000,703.000,5.000,1.000
"07/01/06","20:10:32","AMMA06",60586.000,"cc",28291.865,6.00,2829.187,1,6,0.100,30328.000,0.200,24466.000,0.300,4029.000,0.500,1074.000,1.000,688.000,5.000,1.000
"07/01/06","20:10:38","AMMA06",60548.000,"cc",28361.840,6.00,2836.184,1,6,0.100,30398.000,0.200,24363.000,0.300,3993.000,0.500,1086.000,1.000,708.000,5.000,0
"07/01/06","20:10:44","AMMA06",60515.000,"cc",28303.611,6.00,2830.361,1,6,0.100,30233.000,0.200,24518.000,0.300,4020.000,0.500,1071.000,1.000,673.000,5.000,0
"07/01/06","20:10:50","AMMA06",61004.000,"cc",28325.586,6.00,2832.559,1,6,0.100,30326.000,0.200,24840.000,0.300,4089.000,0.500,1064.000,1.000,684.000,5.000,1.000
"07/01/06","20:10:56","AMMA06",60682.000,"cc",28260.033,6.00,2826.003,1,6,0.100,30255.000,0.200,24679.000,0.300,4050.000,0.500,981.000,1.000,717.000,5.000,0
"07/01/06","20:11:02","AMMA06",60767.000,"cc",28339.604,6.00,2833.960,1,6,0.100,30322.000,0.200,24474.000,0.300,4155.000,0.500,1068.000,1.000,748.000,5.000,0
"07/01/06","20:11:08","AMMA06",60702.000,"cc",28367.801,6.00,2836.780,1,6,0.100,30675.000,0.200,24275.000,0.300,3928.000,0.500,1055.000,1.000,769.000,5.000,0
"07/01/06","20:11:14","AMMA06",60900.000,"cc",28281.195,6.00,2828.120,1,6,0.100,30509.000,0.200,24486.000,0.300,4111.000,0.500,1077.000,1.000,717.000,5.000,0
"07/01/06","20:11:20","AMMA06",60711.000,"cc",28311.385,6.00,2831.139,1,6,0.100,30436.000,0.200,24577.000,0.300,3973.000,0.500,999.000,1.000,726.000,5.000,0
"07/01/06","20:11:26","AMMA06",60529.000,"cc",28329.822,6.00,2832.982,1,6,0.100,30410.000,0.200,24321.000,0.300,4056.000,0.500,1075.000,1.000,667.000,5.000,0
"07/01/06","20:11:32","AMMA06",60573.000,"cc",28323.365,6.00,2832.337,1,6,0.100,30458.000,0.200,24299.000,0.300,4065.000,0.500,1036.000,1.000,715.000,5.000,0
"07/01/06","20:11:38","AMMA06",60408.000,"cc",28302.957,6.00,2830.296,1,6,0.100,30403.000,0.200,24313.000,0.300,3914.000,0.500,1040.000,1.000,737.000,5.000,1.000
"07/01/06","20:11:44","AMMA06",60641.000,"cc",28309.820,6.00,2830.982,1,6,0.100,30448.000,0.200,24480.000,0.300,3865.000,0.500,1130.000,1.000,718.000,5.000,0
"07/01/06","20:11:50","AMMA06",60801.000,"cc",28292.998,6.00,2829.300,1,6,0.100,30761.000,0.200,24354.000,0.300,3901.000,0.500,1083.000,1.000,701.000,5.000,1.000
"07/01/06","20:11:56","AMMA06",60495.000,"cc",28323.785,6.00,2832.379,1,6,0.100,30368.000,0.200,24480.000,0.300,3883.000,0.500,1083.000,1.000,680.000,5.000,1.000
"07/01/06","20:12:02","AMMA06",60819.000,"cc",28336.186,6.00,2833.619,1,6,0.100,30972.000,0.200,24256.000,0.300,3777.000,0.500,1086.000,1.000,728.000,5.000,0
"07/01/06","20:12:08","AMMA06",60819.000,"cc",28320.328,6.00,2832.033,1,6,0.100,30831.000,0.200,24220.000,0.300,3954.000,0.500,1093.000,1.000,721.000,5.000,0
"07/01/06","20:12:14","AMMA06",60908.000,"cc",28298.369,6.00,2829.837,1,6,0.100,31095.000,0.200,24072.000,0.300,3963.000,0.500,1052.000,1.000,725.000,5.000,1.000
"07/01/06","20:12:20","AMMA06",60371.000,"cc",28327.943,6.00,2832.794,1,6,0.100,30905.000,0.200,23942.000,0.300,3806.000,0.500,1027.000,1.000,691.000,5.000,0
"07/01/06","20:12:26","AMMA06",60608.000,"cc",28368.023,6.00,2836.803,1,6,0.100,30728.000,0.200,24212.000,0.300,3854.000,0.500,1068.000,1.000,745.000,5.000,1.000
"07/01/06","20:12:32","AMMA06",60029.000,"cc",28323.984,6.00,2832.399,1,6,0.100,30711.000,0.200,23847.000,0.300,3701.000,0.500,1059.000,1.000,711.000,5.000,0
"07/01/06","20:12:38","AMMA06",60405.000,"cc",28308.051,6.00,2830.805,1,6,0.100,30730.000,0.200,24070.000,0.300,3823.000,0.500,1109.000,1.000,672.000,5.000,1.000
"07/01/06","20:12:44","AMMA06",60329.000,"cc",28305.420,6.00,2830.542,1,6,0.100,30693.000,0.200,23900.000,0.300,3954.000,0.500,1110.000,1.000,672.000,5.000,0
"07/01/06","20:12:50","AMMA06",60432.000,"cc",28307.242,6.00,2830.724,1,6,0.100,30979.000,0.200,23976.000,0.300,3757.000,0.500,1038.000,1.000,682.000,5.000,0
"07/01/06","20:12:56","AMMA06",60048.000,"cc",28304.576,6.00,2830.458,1,6,0.100,30841.000,0.200,23738.000,0.300,3755.000,0.500,1028.000,1.000,686.000,5.000,0
"07/01/06","20:13:02","AMMA06",60431.000,"cc",28292.094,6.00,2829.210,1,6,0.100,30802.000,0.200,24075.000,0.300,3743.000,0.500,1080.000,1.000,731.000,5.000,0
"07/01/06","20:13:08","AMMA06",60279.000,"cc",28288.592,6.00,2828.859,1,6,0.100,30939.000,0.200,23901.000,0.300,3738.000,0.500,979.000,1.000,722.000,5.000,0
"07/01/06","20:13:14","AMMA06",60186.000,"cc",28389.434,6.00,2838.944,1,6,0.100,30873.000,0.200,23714.000,0.300,3796.000,0.500,1087.000,1.000,716.000,5.000,0
"07/01/06","20:13:20","AMMA06",59718.000,"cc",28349.635,6.00,2834.964,1,6,0.100,30622.000,0.200,23583.000,0.300,3762.000,0.500,1082.000,1.000,669.000,5.000,0
"07/01/06","20:13:26","AMMA06",60629.000,"cc",28280.652,6.00,2828.065,1,6,0.100,31203.000,0.200,23964.000,0.300,3706.000,0.500,1067.000,1.000,689.000,5.000,0
"07/01/06","20:13:32","AMMA06",60346.000,"cc",28270.846,6.00,2827.085,1,6,0.100,30856.000,0.200,23862.000,0.300,3774.000,0.500,1122.000,1.000,732.000,5.000,0
"07/01/06","20:13:38","AMMA06",60465.000,"cc",28288.422,6.00,2828.842,1,6,0.100,30952.000,0.200,23925.000,0.300,3743.000,0.500,1080.000,1.000,765.000,5.000,0
"07/01/06","20:13:44","AMMA06",60453.000,"cc",28351.258,6.00,2835.126,1,6,0.100,30894.000,0.200,23956.000,0.300,3811.000,0.500,1072.000,1.000,719.000,5.000,1.000
"07/01/06","20:13:50","AMMA06",60355.000,"cc",28310.082,6.00,2831.008,1,6,0.100,31018.000,0.200,23935.000,0.300,3664.000,0.500,1041.000,1.000,697.000,5.000,0
"07/01/06","20:13:56","AMMA06",60119.000,"cc",28342.299,6.00,2834.230,1,6,0.100,30829.000,0.200,23747.000,0.300,3830.000,0.500,1052.000,1.000,661.000,5.000,0
"07/01/06","20:14:02","AMMA06",60140.000,"cc",28285.977,6.00,2828.598,1,6,0.100,30824.000,0.200,23776.000,0.300,3791.000,0.500,1075.000,1.000,674.000,5.000,0